Погода в Ленске

Погода в Ленске : погода сейчас, прогноз погоды и архив. Всё, что Вы хотите узнать о погоде в Ленске!

Хотите узнать прогноз погоды в Ленске? Тогда Вам сюда: Погода в Ленске

Поиск расширенной информации на нашем сайте:

Другие новости

Новости СМИ2

Главная страница сайта

Новости сайта

03.07.2017

Напоминаем, что на нашем специализированном сайте Метеоцентр.Азия вы можете получить высокодетализированные автоматические прогнозы погоды по пунктам России, СНГ и мира в авиационном формате (включающие направление и скорость ветра, видимость, явления погоды, количество и форму облачности, нижнюю и верхнюю границу облачности).

Рекомендуем: Садовый бур ручной купить. Землебур 2 универсальный ручной бур molot.zp.ua.

Погода в Ленске - сегодня

Время (UTC), дата Ветер
(°,м/с) 
Видим.   Явления Облачность Т
(°С)
Тd
(°С)
f(%) Тe
(°С)
Pmin
(гПа)
dP
(гПа)
Po
(мм)
O2
(г/м3)
Тmin Tmax R s Состояние
почвы
18 20.08.17 050 (СВ) 20000 м    6/0 верхняя 
[Ci fib]
+13.4 +8.6 73 +14  1005.1  -2.1  733  280           
21 20.08.17 060 (СВ) 20000 м    10/0 средняя, верхняя 
[Ac trans|Cs]
+13.9 +8.3 69 +14  1002.8  -2.3  731  279           
00 21.08.17 060 (СВ) 20000 м    10/3 1500 м средняя 
[Sc|Ac und]
+14.6 +8.7 68 +15  1000.9  -1.7  730  278  +13.1        сухая 
03 21.08.17 070 (В) 20000 м    10/5 1410 м кучево-дожд., средняя 
[Cb cap|Ac und]
+15.5 +9.1 66 +16  999.6  -1.2  729  276           
06 21.08.17 050 (СВ) 4000 м  ливневой дождь  10/8 900 м кучево-дожд., средняя 
[Cb cap|Ac und]
+13.4 +12.7 96 +19  999.1  -0.6  728  277           
09 21.08.17 050 (СВ) 4000 м  ливневой дождь  10/10 450 м кучево-дожд. 
[Cb cap]
+13.8 +13.3 97 +21  998.4  -0.7  728  276           
12 21.08.17 050 (СВ) 4000 м  слаб. ливневой дождь  10/10 210 м кучево-дожд. 
[Cb cap]
+13.6 +13.2 97 +20  998.3  -0.1  728  277    +15.7  15     
15 21.08.17 020 (С) 10 км  ливневой дождь  10/10 330 м кучево-дожд. 
[Cb cap]
+13 +12.3 96 +18  998.5  0.2  728  277           
18 21.08.17 350 (С) 20000 м  в посл. час ливневой дождь  10/10 400 м кучево-дожд. 
[Cb cap]
+11.8 +10.8 94 +15  999.2  0.5  728  279           
21 21.08.17 320 (СЗ) 10 км  слаб. ливневой дождь  10/8 1300 м кучево-дожд., средняя, верхняя 
[Cb cap|Ac trans|Ci fib]
+10.8 +9.4 91 +11  1000.4  729  281           
00 22.08.17 270 (З) 20000 м  в посл. час ливневой дождь  10/6 1380 м кучево-дожд., средняя 
[Cb cap|Ac und]
+11.2 +8.8 85 +11  1001.6  1.2  730  281  +10.8      влажная 
03 22.08.17 220 (ЮЗ) 4000 м  мгла  10/3 1500 м средняя 
[Sc|Ac und]
+14.6 +9.8 73 +16  1001.9  0.7  730  278           
06 22.08.17 280 (З) 20000 м    9/1 600 м средняя, верхняя 
[Cu hum|Ac trans|Cc]
+19.2 +7 45 +20  1002  0.5  731  274           
09 22.08.17 280 (З) 6-12  20000 м  слаб. ливневой дождь  9/6 1200 м кучево-дожд., средняя, верхняя 
[Cb calv|Ac trans|Ci fib]
+20.1 +10.8 55 +23  1002.6  0.7  731  272           
12 22.08.17 230 (ЮЗ) 2{10}  20000 м  {ливн. осадки}  8/3 1000 м средняя, верхняя 
[Sc diur, vesp|Ac trans|Ci fib]
+15.8 +12.3 80 +22  1004.8  1.7  733  277    +21.3  0.0     
15 22.08.17 230 (ЮЗ) 20000 м    6/0 средняя, верхняя 
[Ac trans|Ci fib]
+11.8 +11 95 +15  1006.4  1.1  733  281           
18 22.08.17 240 (ЮЗ) 20000 м  дым  4/0 верхняя 
[Ci fib]
+8.9 +7.9 93 +9  1007.4  0.7  734  285           
21 22.08.17 250 (З) 4000 м  мгла  3/0 верхняя 
[Ci fib]
+5.4 +4.5 94 +5  1007.8  734  289           
00 23.08.17 250 (З) 1000 м  мгла  3/0 верхняя 
[Ci fib]
+7.3 +5.3 87 +8  1007.4  -0.2  734  287  +5.2        влажная 
03 23.08.17 210 (ЮЗ) 1000 м  мгла  1/0 верхняя 
[Ci fib]
+14 +7.5 65 +14  1006.1  -0.6  733  280           
06 23.08.17 200 (Ю) 1000 м  мгла  3/0 средняя 
[Ac trans]
+17.6 +8.7 56 +18  1004.6  -1  733  276           
09 23.08.17 200 (Ю) 2000 м  мгла  4/4 1000 м 
[Cu hum]
+17.1 +8.6 57 +18  1004.9  0.2  733  276           
12 23.08.17 тихо ()   4000 м  мгла  3/0 верхняя 
[Ci fib]
+12 +9.6 85 +13  1006.2  0.7  733  281    +18.5       
15 23.08.17 250 (З) 4000 м  мгла  8/3 1000 м средняя, верхняя 
[Sc|Ac trans|Ci fib]
+8.6 +7.1 90 +9  1007.2  0.7  734  285           
18 23.08.17 тихо ()   4000 м  мгла  10/0 средняя, верхняя 
[Ac trans|Ci fib]
+6.7 +6 95 +7  1007.5  0.1  734  288           
Время (UTC), дата Ветер
(°,м/с) 
Видим.   Явления Облачность Т
(°С)
Тd
(°С)
f(%) Тe
(°С)
Pmin
(гПа)
dP
(гПа)
Po
(мм)
O2
(г/м3)
Тmin Tmax R s Состояние
почвы

Для получения пояснительной информации подведите курсор к названию столбца.

ПОГОДА в Ленске - архив

Всё, что Вы хотите узнать о погоде в Ленске - удобно и подробно!

Выберите нужную дату (начиная с 1 января 2015* года) и нажмите кнопку "Найти".
Будут отображены архивные сводки погоды по пункту Ленск, начиная с указанной даты.


Отображать данные в формате CSV (для использования в таблицах Excel)


Внимание! Наш архив погоды предназначен исключительно для личного некоммерческого использования в познавательных целях. Если Вам необходимы официальные справки о состоянии погоды (для производственных, юридических, коммерческих и т.п. целей), обращайтесь в органы Росгидромета.

*Примечание: данная дата относится к архиву по метеостанциям СССР (Россия, СНГ, Балтия).
Архив по метеостанциям Зарубежной Европы и Азии (кроме Китая) хранится 10 дней, по другим регионам земного шара (Китай, Африка, Америка, Австралия, Океания) - 1 день.

Ленск - район местоположения метеостанции


Название, широта, долгота, высота метеостанции:
Ленск 60.7°ш. 114.9°д. 234 м над ур. моря [Российская Федерация]

Дополнительная информация

В oтличие oт бoльшинства пoгoдных сайтoв мы публикуем пoдрoбную метеoинфoрмацию в детальнoм прoфессиoнальнoм фoрмате.

Характеристики температуры и влажнoсти вoздуха измеряются на высoте 2 м в тени вдали oт зданий и деревьев.
Скoрoсть ветра измеряется на высoте 10 м (на урoвне рoста челoвека скoрoсть ветра ниже в 1.5-2 раза). Если метеoстанция нахoдится в гoрoде или в лесу, тo скoрoсть ветра занижена на 2-4 м/с пo сравнению с oткрытым местoм. Скoрoсть ветра над акватoриями крупных рек и oзёр, а также на вершинах хoлмoв на 2-5 м/с выше, чем в oбычных услoвиях.
Атмoсфернoе давление в разных тoчках местнoсти мoжет значительнo oтличаться oт давления на метеoстанции, в зависимoсти oт услoвий рельефа (при пoдъёме на 10 м давление пoнижается примернo на 1 мм рт.ст.).